User: anonymous   Login
Location: Unspecified
(0.0000°N, 0.0000°E)
Time: 18:20:58
(UTC+00:00)
Language:

CANX 3A (UNIBRITE) - Orbit

View from above orbital plane
View from above orbital plane
View from above satellite
View from above satellite

Ground track
Ground track

The orbit data is extracted from the following two-line orbital elements,

1 39092U 13009G   16338.50799098  .00000027  00000-0  24928-4 0  9992
2 39092  98.5639 178.7537 0009768 155.5159 204.6492 14.34878324197417
Epoch (UTC): 03 December 2016 12:11:30
Eccentricity: 0.0009768
inclination: 98.5639°
perigee height: 768 km
apogee height: 782 km
right ascension of ascending node: 178.7537°
argument of perigee: 155.5159°
revolutions per day: 14.34878324
mean anomaly at epoch: 204.6492°
orbit number at epoch: 19741

The dashed part of the orbit path shows where the satellite is in the earth's shadow,  

DLR